owner,sensor,date,latitude,longitude,vertical_datum,mass_concentration_of_oxygen_in_sea_water,qcFlag 
DISL,ioos:station:DISL:BSCA:1,2016-02-01T00:00:00Z,30.3288,-87.8293,2.276,11.73,1111122 
DISL,ioos:station:DISL:BSCA:1,2016-02-01T00:30:00Z,30.3288,-87.8293,2.276,11.68,1111122 
DISL,ioos:station:DISL:BSCA:1,2016-02-01T01:00:00Z,30.3288,-87.8293,2.261,11.6,1111122 
DISL,ioos:station:DISL:BSCA:1,2016-02-01T01:30:00Z,30.3288,-87.8293,2.242,11.64,1111122 
DISL,ioos:station:DISL:BSCA:1,2016-02-01T02:00:00Z,30.3288,-87.8293,2.221,11.56,1111122 
DISL,ioos:station:DISL:BSCA:1,2016-02-01T02:30:00Z,30.3288,-87.8293,2.2,11.53,1111122 
DISL,ioos:station:DISL:BSCA:1,2016-02-01T03:00:00Z,30.3288,-87.8293,2.187,11.37,1111122 
DISL,ioos:station:DISL:BSCA:1,2016-02-01T03:30:00Z,30.3288,-87.8293,2.178,11.41,1111122 
DISL,ioos:station:DISL:BSCA:1,2016-02-01T04:00:00Z,30.3288,-87.8293,2.178,11.33,1111122 
DISL,ioos:station:DISL:BSCA:1,2016-02-01T04:30:00Z,30.3288,-87.8293,2.172,11.29,1111122 
DISL,ioos:station:DISL:BSCA:1,2016-02-01T05:00:00Z,30.3288,-87.8293,2.163,11.27,1111122 
DISL,ioos:station:DISL:BSCA:1,2016-02-01T05:30:00Z,30.3288,-87.8293,2.141,11.19,1111122 
DISL,ioos:station:DISL:BSCA:1,2016-02-01T06:00:00Z,30.3288,-87.8293,2.125,10.97,1111122 
DISL,ioos:station:DISL:BSCA:1,2016-02-01T06:30:00Z,30.3288,-87.8293,2.091,11.16,1111122 
DISL,ioos:station:DISL:BSCA:1,2016-02-01T07:00:00Z,30.3288,-87.8293,2.079,11.29,1111122 
DISL,ioos:station:DISL:BSCA:1,2016-02-01T07:30:00Z,30.3288,-87.8293,2.059,11.02,1111122 
DISL,ioos:station:DISL:BSCA:1,2016-02-01T08:00:00Z,30.3288,-87.8293,2.042,10.88,1111122 
DISL,ioos:station:DISL:BSCA:1,2016-02-01T08:30:00Z,30.3288,-87.8293,2.033,10.55,1111122 
DISL,ioos:station:DISL:BSCA:1,2016-02-01T09:00:00Z,30.3288,-87.8293,2.021,10.68,1111122 
DISL,ioos:station:DISL:BSCA:1,2016-02-01T09:30:00Z,30.3288,-87.8293,2.028,10.59,1111122 
DISL,ioos:station:DISL:BSCA:1,2016-02-01T10:00:00Z,30.3288,-87.8293,2.01,10.77,1111122 
DISL,ioos:station:DISL:BSCA:1,2016-02-01T10:30:00Z,30.3288,-87.8293,2.011,10.71,1111122 
DISL,ioos:station:DISL:BSCA:1,2016-02-01T11:00:00Z,30.3288,-87.8293,2.001,10.61,1111122 
DISL,ioos:station:DISL:BSCA:1,2016-02-01T11:30:00Z,30.3288,-87.8293,2.0,10.67,1111122 
DISL,ioos:station:DISL:BSCA:1,2016-02-01T12:00:00Z,30.3288,-87.8293,1.987,10.85,1111122 
DISL,ioos:station:DISL:BSCA:1,2016-02-01T12:30:00Z,30.3288,-87.8293,1.998,10.6,1111122 
DISL,ioos:station:DISL:BSCA:1,2016-02-01T13:00:00Z,30.3288,-87.8293,1.997,10.73,1111122 
DISL,ioos:station:DISL:BSCA:1,2016-02-01T13:30:00Z,30.3288,-87.8293,2.009,10.62,1111122 
DISL,ioos:station:DISL:BSCA:1,2016-02-01T14:00:00Z,30.3288,-87.8293,2.03,10.61,1111122 
DISL,ioos:station:DISL:BSCA:1,2016-02-01T14:30:00Z,30.3288,-87.8293,2.04,10.63,1111122 
DISL,ioos:station:DISL:BSCA:1,2016-02-01T15:00:00Z,30.3288,-87.8293,2.064,10.63,1111122 
DISL,ioos:station:DISL:BSCA:1,2016-02-01T15:30:00Z,30.3288,-87.8293,2.078,10.78,1111122 
DISL,ioos:station:DISL:BSCA:1,2016-02-01T16:00:00Z,30.3288,-87.8293,2.081,10.81,1111122 
DISL,ioos:station:DISL:BSCA:1,2016-02-01T16:30:00Z,30.3288,-87.8293,2.092,11.14,1111122 
DISL,ioos:station:DISL:BSCA:1,2016-02-01T17:00:00Z,30.3288,-87.8293,2.102,11.14,1111122 
DISL,ioos:station:DISL:BSCA:1,2016-02-01T17:30:00Z,30.3288,-87.8293,2.111,11.07,1111122 
DISL,ioos:station:DISL:BSCA:1,2016-02-01T18:00:00Z,30.3288,-87.8293,2.14,11.25,1111122 
DISL,ioos:station:DISL:BSCA:1,2016-02-01T18:30:00Z,30.3288,-87.8293,2.16,11.26,1111122 
DISL,ioos:station:DISL:BSCA:1,2016-02-01T19:00:00Z,30.3288,-87.8293,2.178,11.33,1111122 
DISL,ioos:station:DISL:BSCA:1,2016-02-01T19:30:00Z,30.3288,-87.8293,2.181,12.31,1111122 
DISL,ioos:station:DISL:BSCA:1,2016-02-01T20:00:00Z,30.3288,-87.8293,2.186,11.54,1111122 
DISL,ioos:station:DISL:BSCA:1,2016-02-01T20:30:00Z,30.3288,-87.8293,2.194,9.31,1111122 
DISL,ioos:station:DISL:BSCA:1,2016-02-01T21:00:00Z,30.3288,-87.8293,2.192,8.76,1111122 
DISL,ioos:station:DISL:BSCA:1,2016-02-01T21:30:00Z,30.3288,-87.8293,2.201,12.8,1111122 
DISL,ioos:station:DISL:BSCA:1,2016-02-01T22:00:00Z,30.3288,-87.8293,2.201,12.42,1111122 
DISL,ioos:station:DISL:BSCA:1,2016-02-01T22:30:00Z,30.3288,-87.8293,2.2,12.26,1111122 
DISL,ioos:station:DISL:BSCA:1,2016-02-01T23:00:00Z,30.3288,-87.8293,2.193,10.87,1111122 
DISL,ioos:station:DISL:BSCA:1,2016-02-01T23:30:00Z,30.3288,-87.8293,2.183,9.9,1111122 
DISL,ioos:station:DISL:BSCA:1,2016-02-02T00:00:00Z,30.3288,-87.8293,2.178,9.95,1111122 
DISL,ioos:station:DISL:BSCA:1,2016-02-02T00:30:00Z,30.3288,-87.8293,2.17,10.04,1111122 
DISL,ioos:station:DISL:BSCA:1,2016-02-02T01:00:00Z,30.3288,-87.8293,2.162,9.88,1111122 
DISL,ioos:station:DISL:BSCA:1,2016-02-02T01:30:00Z,30.3288,-87.8293,2.151,10.05,1111122 
DISL,ioos:station:DISL:BSCA:1,2016-02-02T02:00:00Z,30.3288,-87.8293,2.134,10.1,1111122 
DISL,ioos:station:DISL:BSCA:1,2016-02-02T02:30:00Z,30.3288,-87.8293,2.123,10.36,1111122 
DISL,ioos:station:DISL:BSCA:1,2016-02-02T03:00:00Z,30.3288,-87.8293,2.111,10.26,1111122 
DISL,ioos:station:DISL:BSCA:1,2016-02-02T03:30:00Z,30.3288,-87.8293,2.098,11.14,1111122 
DISL,ioos:station:DISL:BSCA:1,2016-02-02T04:00:00Z,30.3288,-87.8293,2.089,11.34,1111122 
DISL,ioos:station:DISL:BSCA:1,2016-02-02T04:30:00Z,30.3288,-87.8293,2.068,11.64,1111122 
DISL,ioos:station:DISL:BSCA:1,2016-02-02T05:00:00Z,30.3288,-87.8293,2.044,11.86,1111122 
DISL,ioos:station:DISL:BSCA:1,2016-02-02T05:30:00Z,30.3288,-87.8293,2.033,11.63,1111122 
DISL,ioos:station:DISL:BSCA:1,2016-02-02T06:00:00Z,30.3288,-87.8293,2.011,11.23,1111122 
DISL,ioos:station:DISL:BSCA:1,2016-02-02T06:30:00Z,30.3288,-87.8293,2.0,11.38,1111122 
DISL,ioos:station:DISL:BSCA:1,2016-02-02T07:00:00Z,30.3288,-87.8293,1.995,11.42,1111122 
DISL,ioos:station:DISL:BSCA:1,2016-02-02T07:30:00Z,30.3288,-87.8293,1.99,11.57,1111122 
DISL,ioos:station:DISL:BSCA:1,2016-02-02T08:00:00Z,30.3288,-87.8293,1.974,11.23,1111122 
DISL,ioos:station:DISL:BSCA:1,2016-02-02T08:30:00Z,30.3288,-87.8293,1.97,11.22,1111122 
DISL,ioos:station:DISL:BSCA:1,2016-02-02T09:00:00Z,30.3288,-87.8293,1.954,11.42,1111122 
DISL,ioos:station:DISL:BSCA:1,2016-02-02T09:30:00Z,30.3288,-87.8293,1.947,11.37,1111122 
DISL,ioos:station:DISL:BSCA:1,2016-02-02T10:00:00Z,30.3288,-87.8293,1.949,11.28,1111122 
DISL,ioos:station:DISL:BSCA:1,2016-02-02T10:30:00Z,30.3288,-87.8293,1.944,10.65,1111122 
DISL,ioos:station:DISL:BSCA:1,2016-02-02T11:00:00Z,30.3288,-87.8293,1.96,10.86,1111122 
DISL,ioos:station:DISL:BSCA:1,2016-02-02T11:30:00Z,30.3288,-87.8293,1.962,10.78,1111122 
DISL,ioos:station:DISL:BSCA:1,2016-02-02T12:00:00Z,30.3288,-87.8293,1.986,10.89,1111122 
DISL,ioos:station:DISL:BSCA:1,2016-02-02T12:30:00Z,30.3288,-87.8293,2.001,10.67,1111122 
DISL,ioos:station:DISL:BSCA:1,2016-02-02T13:00:00Z,30.3288,-87.8293,2.016,10.33,1111122 
DISL,ioos:station:DISL:BSCA:1,2016-02-02T13:30:00Z,30.3288,-87.8293,2.039,10.4,1111122 
DISL,ioos:station:DISL:BSCA:1,2016-02-02T14:00:00Z,30.3288,-87.8293,2.05,10.48,1111122 
DISL,ioos:station:DISL:BSCA:1,2016-02-02T14:30:00Z,30.3288,-87.8293,2.08,10.44,1111122 
DISL,ioos:station:DISL:BSCA:1,2016-02-02T15:00:00Z,30.3288,-87.8293,2.1,10.31,1111122 
DISL,ioos:station:DISL:BSCA:1,2016-02-02T15:30:00Z,30.3288,-87.8293,2.134,10.5,1111122 
DISL,ioos:station:DISL:BSCA:1,2016-02-02T16:00:00Z,30.3288,-87.8293,2.157,10.64,1111122 
DISL,ioos:station:DISL:BSCA:1,2016-02-02T16:30:00Z,30.3288,-87.8293,2.182,10.79,1111122 
DISL,ioos:station:DISL:BSCA:1,2016-02-02T17:00:00Z,30.3288,-87.8293,2.189,10.84,1111122 
DISL,ioos:station:DISL:BSCA:1,2016-02-02T17:30:00Z,30.3288,-87.8293,2.226,11.0,1111122 
DISL,ioos:station:DISL:BSCA:1,2016-02-02T18:00:00Z,30.3288,-87.8293,2.228,11.08,1111122 
DISL,ioos:station:DISL:BSCA:1,2016-02-02T18:30:00Z,30.3288,-87.8293,2.155,11.27,1111122 
DISL,ioos:station:DISL:BSCA:1,2016-02-02T19:00:00Z,30.3288,-87.8293,2.265,11.36,1111122 
DISL,ioos:station:DISL:BSCA:1,2016-02-02T19:30:00Z,30.3288,-87.8293,2.299,11.5,1111122 
DISL,ioos:station:DISL:BSCA:1,2016-02-02T20:00:00Z,30.3288,-87.8293,2.326,11.41,1111122 
DISL,ioos:station:DISL:BSCA:1,2016-02-02T20:30:00Z,30.3288,-87.8293,2.361,11.35,1111122 
DISL,ioos:station:DISL:BSCA:1,2016-02-02T21:00:00Z,30.3288,-87.8293,2.335,11.45,1111122 
DISL,ioos:station:DISL:BSCA:1,2016-02-02T21:30:00Z,30.3288,-87.8293,2.345,11.23,1111122 
DISL,ioos:station:DISL:BSCA:1,2016-02-02T22:00:00Z,30.3288,-87.8293,2.376,11.27,1111122 
DISL,ioos:station:DISL:BSCA:1,2016-02-02T22:30:00Z,30.3288,-87.8293,2.42,11.23,1111122 
DISL,ioos:station:DISL:BSCA:1,2016-02-02T23:00:00Z,30.3288,-87.8293,2.432,11.09,1111122 
DISL,ioos:station:DISL:BSCA:1,2016-02-02T23:30:00Z,30.3288,-87.8293,2.448,10.89,1111122 
DISL,ioos:station:DISL:BSCA:1,2016-02-03T00:00:00Z,30.3288,-87.8293,2.428,10.84,1111122 
DISL,ioos:station:DISL:BSCA:1,2016-02-03T00:30:00Z,30.3288,-87.8293,2.433,10.77,1111122 
DISL,ioos:station:DISL:BSCA:1,2016-02-03T01:00:00Z,30.3288,-87.8293,2.422,10.71,1111122 
DISL,ioos:station:DISL:BSCA:1,2016-02-03T01:30:00Z,30.3288,-87.8293,2.417,10.68,1111122 
DISL,ioos:station:DISL:BSCA:1,2016-02-03T02:00:00Z,30.3288,-87.8293,2.481,10.6,1111122 
DISL,ioos:station:DISL:BSCA:1,2016-02-03T02:30:00Z,30.3288,-87.8293,2.409,10.63,1111122 
DISL,ioos:station:DISL:BSCA:1,2016-02-03T03:00:00Z,30.3288,-87.8293,2.405,10.51,1111122 
DISL,ioos:station:DISL:BSCA:1,2016-02-03T03:30:00Z,30.3288,-87.8293,2.386,10.5,1111122 
DISL,ioos:station:DISL:BSCA:1,2016-02-03T04:00:00Z,30.3288,-87.8293,2.332,10.38,1111122 
DISL,ioos:station:DISL:BSCA:1,2016-02-03T04:30:00Z,30.3288,-87.8293,2.351,10.4,1111122 
DISL,ioos:station:DISL:BSCA:1,2016-02-03T05:00:00Z,30.3288,-87.8293,2.319,10.33,1111122 
DISL,ioos:station:DISL:BSCA:1,2016-02-03T05:30:00Z,30.3288,-87.8293,2.293,10.3,1111122 
DISL,ioos:station:DISL:BSCA:1,2016-02-03T06:00:00Z,30.3288,-87.8293,2.266,10.29,1111122 
DISL,ioos:station:DISL:BSCA:1,2016-02-03T06:30:00Z,30.3288,-87.8293,2.216,10.22,1111122 
DISL,ioos:station:DISL:BSCA:1,2016-02-03T07:00:00Z,30.3288,-87.8293,2.247,10.27,1111122 
DISL,ioos:station:DISL:BSCA:1,2016-02-03T07:30:00Z,30.3288,-87.8293,2.105,10.23,1111122 
DISL,ioos:station:DISL:BSCA:1,2016-02-03T08:00:00Z,30.3288,-87.8293,2.148,10.04,1111122 
DISL,ioos:station:DISL:BSCA:1,2016-02-03T08:30:00Z,30.3288,-87.8293,2.135,9.87,1111122 
DISL,ioos:station:DISL:BSCA:1,2016-02-03T09:00:00Z,30.3288,-87.8293,2.128,9.68,1111122 
DISL,ioos:station:DISL:BSCA:1,2016-02-03T09:30:00Z,30.3288,-87.8293,2.117,9.5,1111122 
DISL,ioos:station:DISL:BSCA:1,2016-02-03T10:00:00Z,30.3288,-87.8293,2.1,9.44,1111122 
DISL,ioos:station:DISL:BSCA:1,2016-02-03T10:30:00Z,30.3288,-87.8293,2.065,9.39,1111122 
DISL,ioos:station:DISL:BSCA:1,2016-02-03T11:00:00Z,30.3288,-87.8293,2.051,9.34,1111122 
DISL,ioos:station:DISL:BSCA:1,2016-02-03T11:30:00Z,30.3288,-87.8293,2.048,9.34,1111122 
DISL,ioos:station:DISL:BSCA:1,2016-02-03T12:00:00Z,30.3288,-87.8293,2.092,9.25,1111122 
DISL,ioos:station:DISL:BSCA:1,2016-02-03T12:30:00Z,30.3288,-87.8293,2.159,9.18,1111122 
DISL,ioos:station:DISL:BSCA:1,2016-02-03T13:00:00Z,30.3288,-87.8293,2.189,9.23,1111122 
DISL,ioos:station:DISL:BSCA:1,2016-02-03T13:30:00Z,30.3288,-87.8293,2.192,9.34,1111122 
DISL,ioos:station:DISL:BSCA:1,2016-02-03T14:00:00Z,30.3288,-87.8293,2.072,9.43,1111122 
DISL,ioos:station:DISL:BSCA:1,2016-02-03T14:30:00Z,30.3288,-87.8293,1.997,9.42,1111122 
DISL,ioos:station:DISL:BSCA:1,2016-02-03T15:00:00Z,30.3288,-87.8293,1.894,9.39,1111122 
DISL,ioos:station:DISL:BSCA:1,2016-02-03T15:30:00Z,30.3288,-87.8293,1.905,9.27,1111122 
DISL,ioos:station:DISL:BSCA:1,2016-02-03T16:00:00Z,30.3288,-87.8293,1.927,9.27,1111122 
DISL,ioos:station:DISL:BSCA:1,2016-02-03T16:30:00Z,30.3288,-87.8293,1.997,9.28,1111122 
DISL,ioos:station:DISL:BSCA:1,2016-02-03T17:00:00Z,30.3288,-87.8293,2.054,9.34,1111122 
DISL,ioos:station:DISL:BSCA:1,2016-02-03T17:30:00Z,30.3288,-87.8293,2.074,9.36,1111122 
DISL,ioos:station:DISL:BSCA:1,2016-02-03T18:00:00Z,30.3288,-87.8293,2.105,9.53,1111122 
DISL,ioos:station:DISL:BSCA:1,2016-02-03T18:30:00Z,30.3288,-87.8293,2.083,9.63,1111122 
DISL,ioos:station:DISL:BSCA:1,2016-02-03T19:00:00Z,30.3288,-87.8293,2.122,9.72,1111122 
DISL,ioos:station:DISL:BSCA:1,2016-02-03T19:30:00Z,30.3288,-87.8293,2.134,9.53,1111122 
DISL,ioos:station:DISL:BSCA:1,2016-02-03T20:00:00Z,30.3288,-87.8293,2.184,9.53,1111122 
DISL,ioos:station:DISL:BSCA:1,2016-02-03T20:30:00Z,30.3288,-87.8293,2.217,9.77,1111122 
DISL,ioos:station:DISL:BSCA:1,2016-02-03T21:00:00Z,30.3288,-87.8293,2.236,9.85,1111122 
DISL,ioos:station:DISL:BSCA:1,2016-02-03T21:30:00Z,30.3288,-87.8293,2.277,9.57,1111122 
DISL,ioos:station:DISL:BSCA:1,2016-02-03T22:00:00Z,30.3288,-87.8293,2.312,8.34,1111122 
DISL,ioos:station:DISL:BSCA:1,2016-02-03T22:30:00Z,30.3288,-87.8293,2.338,8.15,1111122 
DISL,ioos:station:DISL:BSCA:1,2016-02-03T23:00:00Z,30.3288,-87.8293,2.365,8.27,1111122 
DISL,ioos:station:DISL:BSCA:1,2016-02-03T23:30:00Z,30.3288,-87.8293,2.385,8.45,1111122 
DISL,ioos:station:DISL:BSCA:1,2016-02-04T00:00:00Z,30.3288,-87.8293,2.409,8.27,1111122 
DISL,ioos:station:DISL:BSCA:1,2016-02-04T00:30:00Z,30.3288,-87.8293,2.413,7.94,1111122 
DISL,ioos:station:DISL:BSCA:1,2016-02-04T01:00:00Z,30.3288,-87.8293,2.428,8.31,1111122 
DISL,ioos:station:DISL:BSCA:1,2016-02-04T01:30:00Z,30.3288,-87.8293,2.444,8.23,1111122 
DISL,ioos:station:DISL:BSCA:1,2016-02-04T02:00:00Z,30.3288,-87.8293,2.431,8.25,1111122 
DISL,ioos:station:DISL:BSCA:1,2016-02-04T02:30:00Z,30.3288,-87.8293,2.414,8.14,1111122 
DISL,ioos:station:DISL:BSCA:1,2016-02-04T03:00:00Z,30.3288,-87.8293,2.389,8.2,1111122 
DISL,ioos:station:DISL:BSCA:1,2016-02-04T03:30:00Z,30.3288,-87.8293,2.372,8.44,1111122 
DISL,ioos:station:DISL:BSCA:1,2016-02-04T04:00:00Z,30.3288,-87.8293,2.337,8.66,1111122 
DISL,ioos:station:DISL:BSCA:1,2016-02-04T04:30:00Z,30.3288,-87.8293,2.281,8.67,1111122 
DISL,ioos:station:DISL:BSCA:1,2016-02-04T05:00:00Z,30.3288,-87.8293,2.223,8.58,1111122 
DISL,ioos:station:DISL:BSCA:1,2016-02-04T05:30:00Z,30.3288,-87.8293,2.179,8.55,1111122 
DISL,ioos:station:DISL:BSCA:1,2016-02-04T06:00:00Z,30.3288,-87.8293,2.149,9.0,1111122 
DISL,ioos:station:DISL:BSCA:1,2016-02-04T06:30:00Z,30.3288,-87.8293,2.156,8.57,1111122 
DISL,ioos:station:DISL:BSCA:1,2016-02-04T07:00:00Z,30.3288,-87.8293,2.169,7.93,1111122 
DISL,ioos:station:DISL:BSCA:1,2016-02-04T07:30:00Z,30.3288,-87.8293,2.133,8.74,1111122 
DISL,ioos:station:DISL:BSCA:1,2016-02-04T08:00:00Z,30.3288,-87.8293,2.098,8.41,1111122 
DISL,ioos:station:DISL:BSCA:1,2016-02-04T08:30:00Z,30.3288,-87.8293,2.038,9.01,1111122 
DISL,ioos:station:DISL:BSCA:1,2016-02-04T09:00:00Z,30.3288,-87.8293,2.008,9.44,1111122 
DISL,ioos:station:DISL:BSCA:1,2016-02-04T09:30:00Z,30.3288,-87.8293,1.927,9.51,1111122 
DISL,ioos:station:DISL:BSCA:1,2016-02-04T10:00:00Z,30.3288,-87.8293,1.88,9.38,1111122 
DISL,ioos:station:DISL:BSCA:1,2016-02-04T10:30:00Z,30.3288,-87.8293,1.796,9.23,1111122 
DISL,ioos:station:DISL:BSCA:1,2016-02-04T11:00:00Z,30.3288,-87.8293,1.784,9.17,1111122 
DISL,ioos:station:DISL:BSCA:1,2016-02-04T11:30:00Z,30.3288,-87.8293,1.787,8.93,1111122 
DISL,ioos:station:DISL:BSCA:1,2016-02-04T12:00:00Z,30.3288,-87.8293,1.758,8.58,1111122 
DISL,ioos:station:DISL:BSCA:1,2016-02-04T12:30:00Z,30.3288,-87.8293,1.747,8.28,1111122 
DISL,ioos:station:DISL:BSCA:1,2016-02-04T13:00:00Z,30.3288,-87.8293,1.782,8.43,1111122 
DISL,ioos:station:DISL:BSCA:1,2016-02-04T13:30:00Z,30.3288,-87.8293,1.756,8.89,1111122 
DISL,ioos:station:DISL:BSCA:1,2016-02-04T14:00:00Z,30.3288,-87.8293,1.775,9.06,1111122 
DISL,ioos:station:DISL:BSCA:1,2016-02-04T14:30:00Z,30.3288,-87.8293,1.786,9.36,1111122 
DISL,ioos:station:DISL:BSCA:1,2016-02-04T15:00:00Z,30.3288,-87.8293,1.793,9.43,1111122 
DISL,ioos:station:DISL:BSCA:1,2016-02-04T15:30:00Z,30.3288,-87.8293,1.813,9.56,1111122 
DISL,ioos:station:DISL:BSCA:1,2016-02-04T16:00:00Z,30.3288,-87.8293,1.829,9.57,1111122 
DISL,ioos:station:DISL:BSCA:1,2016-02-04T16:30:00Z,30.3288,-87.8293,1.866,9.63,1111122 
DISL,ioos:station:DISL:BSCA:1,2016-02-04T17:00:00Z,30.3288,-87.8293,1.88,10.1,1111122 
DISL,ioos:station:DISL:BSCA:1,2016-02-04T17:30:00Z,30.3288,-87.8293,1.927,10.16,1111122 
DISL,ioos:station:DISL:BSCA:1,2016-02-04T18:00:00Z,30.3288,-87.8293,1.917,10.34,1111122 
DISL,ioos:station:DISL:BSCA:1,2016-02-04T18:30:00Z,30.3288,-87.8293,1.958,10.37,1111122 
DISL,ioos:station:DISL:BSCA:1,2016-02-04T19:00:00Z,30.3288,-87.8293,1.971,10.22,1111122 
DISL,ioos:station:DISL:BSCA:1,2016-02-04T19:30:00Z,30.3288,-87.8293,2.014,9.96,1111122 
DISL,ioos:station:DISL:BSCA:1,2016-02-04T20:00:00Z,30.3288,-87.8293,2.059,9.31,1111122 
DISL,ioos:station:DISL:BSCA:1,2016-02-04T20:30:00Z,30.3288,-87.8293,2.117,9.47,1111122 
DISL,ioos:station:DISL:BSCA:1,2016-02-04T21:00:00Z,30.3288,-87.8293,2.116,8.89,1111122 
DISL,ioos:station:DISL:BSCA:1,2016-02-04T21:30:00Z,30.3288,-87.8293,2.236,10.65,1111122 
DISL,ioos:station:DISL:BSCA:1,2016-02-04T22:00:00Z,30.3288,-87.8293,2.181,9.97,1111122 
DISL,ioos:station:DISL:BSCA:1,2016-02-04T22:30:00Z,30.3288,-87.8293,2.121,9.99,1111122 
DISL,ioos:station:DISL:BSCA:1,2016-02-04T23:00:00Z,30.3288,-87.8293,2.18,9.94,1111122 
DISL,ioos:station:DISL:BSCA:1,2016-02-04T23:30:00Z,30.3288,-87.8293,2.151,9.88,1111122 
DISL,ioos:station:DISL:BSCA:1,2016-02-05T00:00:00Z,30.3288,-87.8293,2.129,9.76,1111122 
DISL,ioos:station:DISL:BSCA:1,2016-02-05T00:30:00Z,30.3288,-87.8293,2.166,8.91,1111122 
DISL,ioos:station:DISL:BSCA:1,2016-02-05T01:00:00Z,30.3288,-87.8293,2.119,9.68,1111122 
DISL,ioos:station:DISL:BSCA:1,2016-02-05T01:30:00Z,30.3288,-87.8293,2.16,10.04,1111122 
DISL,ioos:station:DISL:BSCA:1,2016-02-05T02:00:00Z,30.3288,-87.8293,2.122,9.86,1111122 
DISL,ioos:station:DISL:BSCA:1,2016-02-05T02:30:00Z,30.3288,-87.8293,2.066,9.5,1111122 
DISL,ioos:station:DISL:BSCA:1,2016-02-05T03:00:00Z,30.3288,-87.8293,2.115,9.4,1111122 
DISL,ioos:station:DISL:BSCA:1,2016-02-05T03:30:00Z,30.3288,-87.8293,2.013,9.96,1111122 
DISL,ioos:station:DISL:BSCA:1,2016-02-05T04:00:00Z,30.3288,-87.8293,1.997,9.73,1111122 
DISL,ioos:station:DISL:BSCA:1,2016-02-05T04:30:00Z,30.3288,-87.8293,2.043,9.88,1111122 
DISL,ioos:station:DISL:BSCA:1,2016-02-05T05:00:00Z,30.3288,-87.8293,1.987,10.11,1111122 
DISL,ioos:station:DISL:BSCA:1,2016-02-05T05:30:00Z,30.3288,-87.8293,1.927,10.07,1111122 
DISL,ioos:station:DISL:BSCA:1,2016-02-05T06:00:00Z,30.3288,-87.8293,1.889,9.9,1111122 
DISL,ioos:station:DISL:BSCA:1,2016-02-05T06:30:00Z,30.3288,-87.8293,1.841,9.79,1111122 
DISL,ioos:station:DISL:BSCA:1,2016-02-05T07:00:00Z,30.3288,-87.8293,1.805,9.73,1111122 
DISL,ioos:station:DISL:BSCA:1,2016-02-05T07:30:00Z,30.3288,-87.8293,1.767,9.68,1111122 
DISL,ioos:station:DISL:BSCA:1,2016-02-05T08:00:00Z,30.3288,-87.8293,1.742,9.65,1111122 
DISL,ioos:station:DISL:BSCA:1,2016-02-05T08:30:00Z,30.3288,-87.8293,1.711,9.69,1111122 
DISL,ioos:station:DISL:BSCA:1,2016-02-05T09:00:00Z,30.3288,-87.8293,1.666,9.59,1111122 
DISL,ioos:station:DISL:BSCA:1,2016-02-05T09:30:00Z,30.3288,-87.8293,1.621,9.52,1111122 
DISL,ioos:station:DISL:BSCA:1,2016-02-05T10:00:00Z,30.3288,-87.8293,1.587,9.48,1111122 
DISL,ioos:station:DISL:BSCA:1,2016-02-05T10:30:00Z,30.3288,-87.8293,1.563,9.47,1111122 
DISL,ioos:station:DISL:BSCA:1,2016-02-05T11:00:00Z,30.3288,-87.8293,1.544,9.44,1111122 
DISL,ioos:station:DISL:BSCA:1,2016-02-05T11:30:00Z,30.3288,-87.8293,1.552,9.36,1111122 
DISL,ioos:station:DISL:BSCA:1,2016-02-05T12:00:00Z,30.3288,-87.8293,1.546,9.39,1111122 
DISL,ioos:station:DISL:BSCA:1,2016-02-05T12:30:00Z,30.3288,-87.8293,1.553,9.38,1111122 
DISL,ioos:station:DISL:BSCA:1,2016-02-05T13:00:00Z,30.3288,-87.8293,1.546,9.41,1111122 
DISL,ioos:station:DISL:BSCA:1,2016-02-05T13:30:00Z,30.3288,-87.8293,1.54,9.4,1111122 
DISL,ioos:station:DISL:BSCA:1,2016-02-05T14:00:00Z,30.3288,-87.8293,1.541,9.43,1111122 
DISL,ioos:station:DISL:BSCA:1,2016-02-05T14:30:00Z,30.3288,-87.8293,1.566,9.56,1111122 
DISL,ioos:station:DISL:BSCA:1,2016-02-05T15:00:00Z,30.3288,-87.8293,1.592,9.55,1111122 
DISL,ioos:station:DISL:BSCA:1,2016-02-05T15:30:00Z,30.3288,-87.8293,1.598,9.73,1111122 
DISL,ioos:station:DISL:BSCA:1,2016-02-05T16:00:00Z,30.3288,-87.8293,1.625,9.7,1111122 
DISL,ioos:station:DISL:BSCA:1,2016-02-05T16:30:00Z,30.3288,-87.8293,1.63,9.83,1111122 
DISL,ioos:station:DISL:BSCA:1,2016-02-05T17:00:00Z,30.3288,-87.8293,1.653,9.94,1111122 
DISL,ioos:station:DISL:BSCA:1,2016-02-05T17:30:00Z,30.3288,-87.8293,1.684,10.14,1111122 
DISL,ioos:station:DISL:BSCA:1,2016-02-05T18:00:00Z,30.3288,-87.8293,1.712,10.1,1111122 
DISL,ioos:station:DISL:BSCA:1,2016-02-05T18:30:00Z,30.3288,-87.8293,1.734,10.33,1111122 
DISL,ioos:station:DISL:BSCA:1,2016-02-05T19:00:00Z,30.3288,-87.8293,1.781,10.33,1111122 
DISL,ioos:station:DISL:BSCA:1,2016-02-05T19:30:00Z,30.3288,-87.8293,1.819,10.44,1111122 
DISL,ioos:station:DISL:BSCA:1,2016-02-05T20:00:00Z,30.3288,-87.8293,1.847,10.56,1111122 
DISL,ioos:station:DISL:BSCA:1,2016-02-05T20:30:00Z,30.3288,-87.8293,1.882,10.71,1111122 
DISL,ioos:station:DISL:BSCA:1,2016-02-05T21:00:00Z,30.3288,-87.8293,1.898,11.29,1111122 
DISL,ioos:station:DISL:BSCA:1,2016-02-05T21:30:00Z,30.3288,-87.8293,1.947,11.6,1111122 
DISL,ioos:station:DISL:BSCA:1,2016-02-05T22:00:00Z,30.3288,-87.8293,1.947,11.57,1111122 
DISL,ioos:station:DISL:BSCA:1,2016-02-05T22:30:00Z,30.3288,-87.8293,1.994,11.46,1111122 
DISL,ioos:station:DISL:BSCA:1,2016-02-05T23:00:00Z,30.3288,-87.8293,2.011,11.45,1111122 
DISL,ioos:station:DISL:BSCA:1,2016-02-05T23:30:00Z,30.3288,-87.8293,2.009,11.32,1111122 
DISL,ioos:station:DISL:BSCA:1,2016-02-06T00:00:00Z,30.3288,-87.8293,1.992,11.03,1111122 
DISL,ioos:station:DISL:BSCA:1,2016-02-06T00:30:00Z,30.3288,-87.8293,1.995,10.82,1111122 
DISL,ioos:station:DISL:BSCA:1,2016-02-06T01:00:00Z,30.3288,-87.8293,1.983,10.7,1111122 
DISL,ioos:station:DISL:BSCA:1,2016-02-06T01:30:00Z,30.3288,-87.8293,1.976,10.78,1111122 
DISL,ioos:station:DISL:BSCA:1,2016-02-06T02:00:00Z,30.3288,-87.8293,1.975,10.7,1111122 
DISL,ioos:station:DISL:BSCA:1,2016-02-06T02:30:00Z,30.3288,-87.8293,1.973,10.72,1111122 
DISL,ioos:station:DISL:BSCA:1,2016-02-06T03:00:00Z,30.3288,-87.8293,1.972,10.75,1111122 
DISL,ioos:station:DISL:BSCA:1,2016-02-06T03:30:00Z,30.3288,-87.8293,1.963,10.64,1111122 
DISL,ioos:station:DISL:BSCA:1,2016-02-06T04:00:00Z,30.3288,-87.8293,1.958,10.68,1111122 
DISL,ioos:station:DISL:BSCA:1,2016-02-06T04:30:00Z,30.3288,-87.8293,1.944,10.81,1111122 
DISL,ioos:station:DISL:BSCA:1,2016-02-06T05:00:00Z,30.3288,-87.8293,1.921,10.75,1111122 
DISL,ioos:station:DISL:BSCA:1,2016-02-06T05:30:00Z,30.3288,-87.8293,1.888,10.73,1111122 
DISL,ioos:station:DISL:BSCA:1,2016-02-06T06:00:00Z,30.3288,-87.8293,1.86,10.7,1111122 
DISL,ioos:station:DISL:BSCA:1,2016-02-06T06:30:00Z,30.3288,-87.8293,1.821,10.61,1111122 
DISL,ioos:station:DISL:BSCA:1,2016-02-06T07:00:00Z,30.3288,-87.8293,1.778,10.52,1111122 
DISL,ioos:station:DISL:BSCA:1,2016-02-06T07:30:00Z,30.3288,-87.8293,1.754,10.56,1111122 
DISL,ioos:station:DISL:BSCA:1,2016-02-06T08:00:00Z,30.3288,-87.8293,1.722,10.5,1111122 
DISL,ioos:station:DISL:BSCA:1,2016-02-06T08:30:00Z,30.3288,-87.8293,1.684,10.45,1111122 
DISL,ioos:station:DISL:BSCA:1,2016-02-06T09:00:00Z,30.3288,-87.8293,1.645,10.47,1111122 
DISL,ioos:station:DISL:BSCA:1,2016-02-06T09:30:00Z,30.3288,-87.8293,1.624,10.4,1111122 
DISL,ioos:station:DISL:BSCA:1,2016-02-06T10:00:00Z,30.3288,-87.8293,1.598,10.37,1111122 
DISL,ioos:station:DISL:BSCA:1,2016-02-06T10:30:00Z,30.3288,-87.8293,1.578,10.17,1111122 
DISL,ioos:station:DISL:BSCA:1,2016-02-06T11:00:00Z,30.3288,-87.8293,1.572,10.06,1111122 
DISL,ioos:station:DISL:BSCA:1,2016-02-06T11:30:00Z,30.3288,-87.8293,1.572,10.11,1111122 
DISL,ioos:station:DISL:BSCA:1,2016-02-06T12:00:00Z,30.3288,-87.8293,1.57,10.01,1111122 
DISL,ioos:station:DISL:BSCA:1,2016-02-06T12:30:00Z,30.3288,-87.8293,1.566,10.03,1111122 
DISL,ioos:station:DISL:BSCA:1,2016-02-06T13:00:00Z,30.3288,-87.8293,1.56,10.03,1111122 
DISL,ioos:station:DISL:BSCA:1,2016-02-06T13:30:00Z,30.3288,-87.8293,1.575,10.05,1111122 
DISL,ioos:station:DISL:BSCA:1,2016-02-06T14:00:00Z,30.3288,-87.8293,1.578,10.01,1111122 
DISL,ioos:station:DISL:BSCA:1,2016-02-06T14:30:00Z,30.3288,-87.8293,1.59,10.13,1111122 